AC2JK-WX Weather Reports


Display with metric or nautical units.
time (UTC)temp
F
wind
direction
speed
MPH
gust
MPH
rain 1hr
in
rain 24hr
in
rain mn
in
humidity
%
barometer
mb
20260506051209 49 245 1.0 1.0 0.09 0.00 0.10 98 1010.0
20260506050710 49 245 0.0 1.0 0.09 0.00 0.10 98 1010.0
20260506050210 49 245 1.0 1.0 0.08 0.00 0.08 98 1010.0
20260506044710 49 245 0.0 1.0 0.05 0.00 0.05 97 1010.0
20260506044209 49 245 0.0 1.0 0.04 0.00 0.04 98 1010.0
20260506043709 49 245 0.0 1.0 0.04 0.00 0.04 98 1009.0
20260506043209 49 245 0.0 1.0 0.03 0.00 0.03 97 1009.0
20260506042709 49 245 1.0 1.0 0.02 0.00 0.02 98 1009.0
20260506042209 49 245 0.0 1.0 0.02 0.00 0.02 97 1009.0
20260506041709 50 245 1.0 1.0 0.02 0.00 0.01 97 1009.0
20260506041209 49 245 0.0 1.0 0.02 0.00 0.01 98 1009.0
20260506040710 49 245 0.0 1.0 0.02 0.00 0.00 97 1009.0
20260506040210 49 245 1.0 1.0 0.02 0.00 0.59 97 1009.0
20260506035710 49 245 0.0 1.0 0.03 0.00 0.59 97 1009.0
20260506035217 49 245 1.0 1.0 0.04 0.00 0.59 97 1009.0
20260506034710 49 245 1.0 1.0 0.04 0.00 0.59 97 1009.0
20260506034211 49 245 0.0 1.0 0.05 0.00 0.59 97 1009.0
20260506033709 50 245 1.0 1.0 0.05 0.00 0.59 97 1009.0
20260506033209 50 245 1.0 1.0 0.06 0.00 0.59 97 1009.0
20260506032709 49 245 0.0 1.0 0.06 0.00 0.59 97 1009.0
20260506032210 49 245 1.0 1.0 0.07 0.00 0.59 97 1010.0
20260506031710 50 245 1.0 1.0 0.06 0.00 0.58 97 1010.0
20260506031210 50 245 0.0 1.0 0.06 0.00 0.58 97 1009.0
20260506030710 50 245 0.0 1.0 0.05 0.00 0.57 97 1010.0
20260506030210 50 245 1.0 1.0 0.06 0.00 0.57 97 1010.0
20260506025709 50 245 0.0 0.0 0.05 0.00 0.56 97 1010.0
20260506025210 50 245 0.0 1.0 0.04 0.00 0.55 97 1010.0
20260506024710 50 245 1.0 1.0 0.04 0.00 0.55 97 1010.0
20260506024209 49 245 0.0 1.0 0.03 0.00 0.54 97 1010.0
20260506023709 49 245 0.0 1.0 0.03 0.00 0.54 97 1010.0
20260506023210 49 245 0.0 1.0 0.02 0.00 0.53 97 1010.0
20260506022710 49 245 1.0 1.0 0.02 0.00 0.53 97 1010.0
20260506022209 49 245 0.0 1.0 0.02 0.00 0.52 97 1010.0
20260506021709 50 245 0.0 1.0 0.02 0.00 0.52 97 1010.0
20260506021210 50 245 1.0 1.0 0.02 0.00 0.52 97 1010.0
20260506020709 49 245 0.0 1.0 0.02 0.00 0.52 97 1010.0
20260506020210 49 245 0.0 1.0 0.01 0.00 0.51 97 1010.0
20260506015710 49 245 1.0 1.0 0.02 0.00 0.51 97 1010.0
20260506015209 49 245 0.0 1.0 0.02 0.00 0.51 97 1010.0
20260506014709 49 245 0.0 1.0 0.02 0.00 0.51 96 1010.0
20260506014209 49 245 1.0 1.0 0.03 0.00 0.51 96 1010.0
20260506013710 50 245 1.0 1.0 0.04 0.00 0.51 96 1010.0
20260506013209 50 245 0.0 1.0 0.05 0.00 0.51 96 1010.0
20260506012709 50 245 1.0 2.0 0.05 0.00 0.50 96 1010.0
20260506012210 50 245 0.0 2.0 0.06 0.00 0.50 96 1010.0
20260506011712 50 245 0.0 0.0 0.07 0.00 0.50 96 1010.0
20260506011210 49 245 0.0 0.0 0.08 0.00 0.50 96 1010.0
20260506010711 49 245 0.0 0.0 0.10 0.00 0.50 96 1010.0
20260506010210 49 245 0.0 0.0 0.10 0.00 0.49 96 1010.0
20260506005710 49 245 0.0 0.0 0.11 0.00 0.49 96 1010.0
20260506005211 49 245 0.0 0.0 0.12 0.00 0.49 96 1010.0
20260506004709 49 245 0.0 0.0 0.14 0.00 0.49 96 1010.0
20260506004209 49 245 0.0 1.0 0.14 0.00 0.48 96 1010.0
20260506003709 49 245 0.0 1.0 0.14 0.00 0.47 96 1010.0
20260506003209 49 245 1.0 2.0 0.14 0.00 0.46 96 1010.0
20260506002713 49 245 0.0 2.0 0.14 0.00 0.45 95 1010.0
20260506002210 49 245 0.0 1.0 0.12 0.00 0.43 95 1010.0
20260506001709 50 245 1.0 1.0 0.12 0.00 0.42 95 1010.0
20260506001209 49 245 0.0 1.0 0.12 0.00 0.41 95 1010.0
20260506000709 50 245 1.0 1.0 0.11 0.00 0.40 95 1010.0
20260506000211 50 245 1.0 1.0 0.11 0.00 0.39 95 1010.0
20260505235709 50 245 0.0 1.0 0.10 0.00 0.38 95 1010.0
20260505235209 50 245 0.0 1.0 0.09 0.00 0.36 95 1010.0
20260505234709 50 245 0.0 1.0 0.09 0.00 0.35 95 1009.0
20260505234209 50 245 0.0 0.0 0.08 0.00 0.34 95 1009.0
20260505233711 50 245 0.0 0.0 0.08 0.00 0.33 95 1009.0
20260505233210 50 245 0.0 1.0 0.08 0.00 0.32 95 1009.0
20260505232709 50 245 1.0 1.0 0.07 0.00 0.31 95 1009.0
20260505232210 50 245 0.0 1.0 0.08 0.00 0.31 95 1009.0
20260505231709 50 245 0.0 1.0 0.07 0.00 0.30 95 1009.0
20260505231210 50 245 1.0 1.0 0.07 0.00 0.29 95 1009.0
20260505230709 50 245 0.0 1.0 0.08 0.00 0.29 95 1009.0
20260505230210 50 245 0.0 1.0 0.08 0.00 0.28 95 1009.0
20260505225709 50 245 1.0 3.0 0.07 0.00 0.27 95 1009.0
20260505225209 50 245 3.0 4.0 0.09 0.00 0.27 94 1009.0
20260505224709 50 245 0.0 2.0 0.09 0.00 0.26 94 1009.0
20260505224209 50 245 2.0 3.0 0.09 0.00 0.26 94 1009.0
20260505223709 50 245 2.0 2.0 0.09 0.00 0.25 94 1009.0
20260505223209 50 245 0.0 1.0 0.09 0.00 0.24 94 1009.0
20260505222709 50 245 2.0 2.0 0.10 0.00 0.24 94 1009.0
20260505222209 50 245 2.0 3.0 0.11 0.00 0.23 93 1009.0
20260505221709 51 245 1.0 2.0 0.12 0.00 0.22 93 1009.0
20260505221211 51 245 1.0 3.0 0.13 0.00 0.22 93 1009.0
20260505220709 51 245 1.0 3.0 0.13 0.00 0.21 93 1010.0
20260505220209 51 245 0.0 1.0 0.13 0.00 0.20 94 1009.0
20260505215709 51 245 3.0 3.0 0.13 0.00 0.19 93 1009.0
20260505215210 51 245 5.0 5.0 0.13 0.00 0.18 93 1009.0
20260505214710 51 245 1.0 4.0 0.12 0.00 0.17 93 1009.0
20260505214210 52 245 1.0 6.0 0.12 0.00 0.16 93 1009.0
20260505213709 52 245 4.0 7.0 0.11 0.00 0.15 93 1009.0
20260505213209 52 245 0.0 3.0 0.10 0.00 0.15 94 1009.0
20260505212710 52 245 1.0 2.0 0.09 0.00 0.13 94 1009.0
20260505212209 52 245 2.0 2.0 0.08 0.00 0.13 94 1008.0
20260505211709 53 245 5.0 6.0 0.06 0.00 0.10 94 1009.0
20260505211212 53 245 3.0 3.0 0.05 0.00 0.09 93 1008.0
20260505210711 52 245 2.0 4.0 0.03 0.00 0.08 93 1008.0
20260505210210 53 245 2.0 4.0 0.03 0.00 0.07 92 1008.0
20260505205709 53 245 4.0 6.0 0.02 0.00 0.06 92 1008.0
20260505205209 53 245 3.0 3.0 0.01 0.00 0.05 91 1008.0
20260505204709 53 245 2.0 6.0 0.01 0.00 0.05 89 1008.0
20260505204210 54 245 4.0 5.0 0.00 0.00 0.04 88 1008.0
20260505203709 54 245 1.0 6.0 0.00 0.00 0.04 86 1008.0
20260505203210 55 245 3.0 3.0 0.00 0.00 0.04 85 1007.0
20260505202709 55 245 2.0 2.0 0.00 0.00 0.04 84 1007.0
20260505202210 55 245 3.0 3.0 0.00 0.00 0.04 84 1007.0
20260505201709 55 245 2.0 6.0 0.00 0.00 0.04 84 1007.0
20260505201210 55 245 5.0 5.0 0.00 0.00 0.04 85 1007.0
20260505200710 54 245 2.0 4.0 0.00 0.00 0.04 85 1007.0
20260505200210 54 245 3.0 6.0 0.00 0.00 0.04 85 1007.0
20260505195709 54 245 7.0 7.0 0.00 0.00 0.04 85 1007.0
20260505195211 54 245 8.0 8.0 0.00 0.00 0.04 83 1007.0
20260505194710 55 245 4.0 9.0 0.00 0.00 0.04 81 1007.0
20260505194209 57 245 4.0 6.0 0.00 0.00 0.04 77 1007.0
20260505193710 57 245 5.0 8.0 0.00 0.00 0.04 76 1007.0
20260505193211 58 245 8.0 8.0 0.00 0.00 0.04 75 1006.0
20260505192711 59 245 9.0 9.0 0.00 0.00 0.04 73 1006.0
20260505192210 61 245 3.0 6.0 0.00 0.00 0.04 70 1006.0
20260505191710 64 245 6.0 8.0 0.00 0.00 0.04 65 1006.0
20260505191210 66 245 6.0 7.0 0.00 0.00 0.04 64 1006.0
20260505190710 66 245 4.0 9.0 0.00 0.00 0.04 64 1006.0
20260505190209 66 245 6.0 10.0 0.00 0.00 0.04 62 1006.0
20260505185709 67 245 7.0 13.0 0.00 0.00 0.04 61 1006.0
20260505185215 67 245 13.0 13.0 0.00 0.00 0.04 60 1006.0
20260505184709 68 245 4.0 5.0 0.00 0.00 0.04 60 1006.0
20260505184210 67 245 6.0 7.0 0.00 0.00 0.04 60 1006.0
20260505183709 68 245 7.0 8.0 0.00 0.00 0.04 59 1006.0
20260505183210 68 245 5.0 6.0 0.00 0.00 0.04 59 1006.0
20260505182709 68 245 5.0 13.0 0.00 0.00 0.04 59 1006.0
20260505182218 68 245 6.0 10.0 0.00 0.00 0.04 59 1006.0
20260505181710 67 245 5.0 8.0 0.00 0.00 0.04 61 1006.0
20260505181212 67 245 8.0 9.0 0.00 0.00 0.04 60 1006.0
20260505180711 67 245 6.0 13.0 0.00 0.00 0.04 61 1006.0
20260505180209 66 245 10.0 15.0 0.00 0.00 0.04 62 1006.0
20260505175709 66 245 10.0 12.0 0.00 0.00 0.04 63 1006.0
20260505175211 65 245 9.0 14.0 0.00 0.00 0.04 64 1006.0
20260505174709 66 245 11.0 11.0 0.00 0.00 0.04 63 1006.0
20260505174211 66 245 8.0 11.0 0.00 0.00 0.04 63 1006.0
20260505173709 66 245 6.0 17.0 0.00 0.00 0.04 63 1006.0
20260505173209 66 245 8.0 16.0 0.00 0.00 0.04 63 1006.0
20260505172709 66 245 9.0 13.0 0.00 0.00 0.04 63 1006.0
20260505172212 66 245 7.0 10.0 0.00 0.00 0.04 63 1006.0
20260505171709 65 245 7.0 11.0 0.00 0.00 0.04 65 1006.0
20260505171210 65 245 8.0 10.0 0.00 0.00 0.04 65 1006.0
20260505170712 66 245 6.0 7.0 0.00 0.00 0.04 65 1006.0
20260505170210 65 245 11.0 11.0 0.00 0.00 0.04 64 1006.0
20260505165710 66 245 6.0 10.0 0.00 0.00 0.04 62 1006.0
20260505165210 67 245 6.0 12.0 0.00 0.00 0.04 61 1006.0
20260505164710 67 245 6.0 11.0 0.00 0.00 0.04 61 1005.0
20260505164210 66 245 5.0 14.0 0.00 0.00 0.04 63 1005.0
20260505163710 67 245 6.0 16.0 0.00 0.00 0.04 61 1005.0
20260505163210 67 245 6.0 11.0 0.00 0.00 0.04 61 1005.0
20260505162710 67 245 9.0 9.0 0.00 0.00 0.04 61 1005.0
20260505162210 66 245 4.0 11.0 0.00 0.00 0.04 63 1005.0
20260505161711 65 245 6.0 11.0 0.00 0.00 0.04 64 1005.0
20260505161210 65 245 8.0 10.0 0.00 0.00 0.04 63 1005.0
20260505160709 64 245 5.0 17.0 0.00 0.00 0.04 66 1005.0
20260505160209 63 245 3.0 3.0 0.00 0.00 0.04 66 1005.0
20260505153210 64 245 5.0 9.0 0.00 0.00 0.04 62 1005.0
20260505152710 65 245 7.0 7.0 0.00 0.00 0.04 62 1005.0
20260505152210 65 245 7.0 7.0 0.00 0.00 0.04 61 1005.0
20260505151709 65 245 8.0 10.0 0.00 0.00 0.04 61 1004.0
20260505151211 66 245 7.0 12.0 0.00 0.00 0.04 61 1004.0
20260505150709 66 245 7.0 7.0 0.00 0.00 0.04 63 1004.0
20260505150210 65 245 11.0 11.0 0.00 0.00 0.04 64 1004.0
20260505140211 64 245 6.0 6.0 0.00 0.00 0.04 65 1004.0
20260505130209 61 245 4.0 7.0 0.00 0.00 0.04 70 1004.0
20260505124709 63 245 4.0 4.0 0.00 0.00 0.04 65 1003.0
20260505124210 63 245 5.0 6.0 0.00 0.00 0.04 65 1003.0
20260505123710 64 245 1.0 6.0 0.00 0.00 0.04 65 1003.0
20260505123209 64 245 5.0 11.0 0.00 0.00 0.04 65 1003.0
20260505122710 64 245 7.0 7.0 0.00 0.00 0.04 65 1003.0
20260505122212 64 245 6.0 8.0 0.01 0.00 0.04 65 1003.0
20260505121231 63 245 3.0 8.0 0.01 0.00 0.04 66 1003.0
20260505120710 63 245 7.0 7.0 0.01 0.00 0.04 66 1003.0
20260505120211 63 245 6.0 11.0 0.01 0.00 0.04 66 1003.0
20260505115709 63 245 5.0 9.0 0.01 0.00 0.04 67 1003.0
20260505115209 63 245 4.0 10.0 0.01 0.00 0.04 67 1002.0
20260505114711 63 245 8.0 8.0 0.01 0.00 0.04 67 1002.0
20260505114212 63 245 8.0 11.0 0.01 0.00 0.04 66 1002.0
20260505113709 63 245 4.0 10.0 0.01 0.00 0.04 66 1002.0
20260505113211 63 245 9.0 9.0 0.01 0.00 0.04 66 1002.0
20260505112712 63 245 6.0 7.0 0.00 0.00 0.04 67 1002.0
20260505112209 63 245 6.0 10.0 0.00 0.00 0.03 67 1002.0
20260505111709 63 245 4.0 10.0 0.00 0.00 0.03 66 1002.0
20260505111210 63 245 4.0 9.0 0.00 0.00 0.03 67 1002.0
20260505110709 63 245 4.0 7.0 0.00 0.00 0.03 67 1002.0
20260505110210 63 245 9.0 11.0 0.00 0.00 0.03 68 1002.0
20260505102209 62 245 4.0 5.0 0.00 0.00 0.03 70 1001.0
20260505101709 63 245 5.0 7.0 0.00 0.00 0.03 70 1001.0
20260505101210 63 245 2.0 6.0 0.00 0.00 0.03 70 1001.0
20260505100709 63 245 6.0 6.0 0.00 0.00 0.03 70 1001.0
20260505095859 63 245 4.0 9.0 0.00 0.00 0.03 70 1001.0
20260505095210 63 245 4.0 8.0 0.00 0.00 0.03 70 1001.0
20260505094709 63 245 2.0 7.0 0.00 0.00 0.03 70 1001.0
20260505094209 63 245 5.0 7.0 0.00 0.00 0.03 71 1001.0
20260505093709 63 245 4.0 4.0 0.00 0.00 0.03 71 1001.0
20260505093211 63 245 4.0 4.0 0.00 0.00 0.03 71 1001.0
20260505092711 63 245 4.0 5.0 0.00 0.00 0.03 72 1001.0
20260505092210 62 245 3.0 5.0 0.00 0.00 0.03 73 1001.0
20260505091714 62 245 6.0 7.0 0.00 0.00 0.03 75 1001.0
20260505091210 61 245 3.0 10.0 0.00 0.00 0.03 76 1001.0
20260505090709 60 245 2.0 6.0 0.00 0.00 0.03 77 1001.0
20260505090209 60 245 4.0 6.0 0.00 0.00 0.03 77 1001.0
20260505085709 60 245 5.0 5.0 0.00 0.00 0.03 77 1001.0
20260505085209 60 245 2.0 4.0 0.00 0.00 0.03 77 1001.0
20260505084709 60 245 4.0 6.0 0.00 0.00 0.03 78 1001.0
20260505084209 58 245 4.0 6.0 0.00 0.00 0.03 82 1001.0
20260505083710 57 245 4.0 7.0 0.00 0.00 0.03 89 1001.0
20260505083210 56 245 2.0 4.0 0.00 0.00 0.03 92 1001.0
20260505082709 56 245 0.0 3.0 0.00 0.00 0.03 93 1001.0
20260505082210 55 245 2.0 3.0 0.00 0.00 0.03 94 1001.0
20260505081713 55 245 1.0 2.0 0.00 0.00 0.03 94 1001.0
20260505081210 54 245 2.0 3.0 0.00 0.00 0.03 94 1001.0
20260505080710 54 245 0.0 1.0 0.00 0.00 0.03 94 1002.0
20260505080211 54 245 0.0 2.0 0.00 0.00 0.03 93 1002.0
20260505075710 54 245 0.0 0.0 0.00 0.00 0.03 93 1002.0
20260505075211 54 245 0.0 2.0 0.00 0.00 0.03 93 1002.0
20260505074711 54 245 0.0 2.0 0.00 0.00 0.03 93 1002.0
20260505074210 54 245 0.0 1.0 0.00 0.00 0.03 93 1002.0
20260505073710 54 245 0.0 1.0 0.00 0.00 0.03 93 1002.0
20260505073209 54 245 1.0 2.0 0.00 0.00 0.03 93 1002.0
20260505072710 54 245 2.0 2.0 0.00 0.00 0.03 93 1002.0
20260505072210 54 245 0.0 0.0 0.00 0.00 0.03 93 1002.0
20260505071709 54 245 1.0 2.0 0.00 0.00 0.03 93 1002.0
20260505071209 54 245 0.0 0.0 0.00 0.00 0.03 93 1002.0
20260505070709 54 245 2.0 3.0 0.00 0.00 0.03 93 1002.0
20260505070209 54 245 0.0 2.0 0.00 0.00 0.03 93 1002.0
20260505065710 54 245 2.0 2.0 0.00 0.00 0.03 93 1002.0
20260505065209 54 245 2.0 3.0 0.00 0.00 0.03 93 1002.0
20260505064709 54 245 3.0 4.0 0.00 0.00 0.03 93 1002.0
20260505064210 54 245 0.0 0.0 0.01 0.00 0.03 93 1003.0
20260505063711 54 245 0.0 2.0 0.02 0.00 0.03 93 1003.0
20260505063209 55 245 3.0 4.0 0.03 0.00 0.03 93 1003.0
20260505062709 55 245 0.0 6.0 0.03 0.00 0.03 92 1004.0
20260505062210 55 245 3.0 3.0 0.03 0.00 0.03 92 1003.0
20260505061709 55 245 1.0 4.0 0.03 0.00 0.03 92 1003.0
20260505061210 55 245 2.0 3.0 0.03 0.00 0.03 91 1003.0
20260505060710 55 245 1.0 5.0 0.03 0.00 0.03 91 1003.0
20260505060210 55 245 5.0 5.0 0.03 0.00 0.03 90 1003.0
20260505055709 56 245 3.0 3.0 0.03 0.00 0.03 90 1003.0
20260505055210 56 245 7.0 7.0 0.03 0.00 0.03 89 1003.0
20260505054709 56 245 4.0 4.0 0.03 0.00 0.03 87 1003.0
20260505054209 57 245 6.0 8.0 0.02 0.00 0.02 85 1003.0
20260505053710 59 245 8.0 9.0 0.01 0.00 0.01 81 1004.0
20260505053209 59 245 9.0 10.0 0.00 0.00 0.00 77 1004.0
20260505052711 59 245 5.0 10.0 0.00 0.00 0.00 76 1003.0
20260505052209 60 245 4.0 9.0 0.00 0.00 0.00 75 1003.0